When you browse on this site, cookies collect data to enhance your experience and personalize the content and advertising you see.
Visit our Privacy Policy to learn more. By continuing to use the site, you agree to this use of cookies and data.
  • En España
  • Lista de países
  • Para 7 días
  • Temperatura del agua
  • Mapa Satelital
  • El tiempo en el mapa
  • Informadores
  • user-avatar
    Iniciar sesión

    Tiempo cada hora Divasy

    Hoy, 15 Julio, Lunes

    Tiempo Temperatura Precipitaciones Viento Presión Humedad
    00:00 +12°C° 0 mm 2 mps 736 mmHg 91%
    01:00 +12°C° 0 mm 1 mps 736 mmHg 91%
    02:00 +11°C° 0 mm 1 mps 736 mmHg 90%
    03:00 +11°C° 0 mm 1 mps 736 mmHg 90%
    04:00 +10°C° 0 mm 0 mps 736 mmHg 90%
    05:00 +11°C° 0 mm 0 mps 736 mmHg 90%
    06:00 +12°C° 0 mm 0 mps 736 mmHg 85%
    07:00 +15°C° 0 mm 1 mps 736 mmHg 81%
    08:00 +16°C° 0 mm 1 mps 736 mmHg 77%
    09:00 +18°C° 0.2 mm 1 mps 736 mmHg 76%
    10:00 +18°C° 0.2 mm 1 mps 736 mmHg 75%
    11:00 +18°C° 0.2 mm 2 mps 736 mmHg 74%
    12:00 +20°C° 0.3 mm 1 mps 736 mmHg 71%
    13:00 +20°C° 0.3 mm 1 mps 736 mmHg 69%
    14:00 +21°C° 0 mm 1 mps 736 mmHg 63%
    15:00 +21°C° 0.2 mm 1 mps 736 mmHg 66%
    16:00 +20°C° 0.2 mm 1 mps 736 mmHg 68%
    17:00 +20°C° 0.2 mm 1 mps 736 mmHg 71%
    18:00 +17°C° 0 mm 2 mps 736 mmHg 77%
    19:00 +16°C° 0 mm 2 mps 736 mmHg 83%
    20:00 +14°C° 0 mm 2 mps 735 mmHg 89%
    21:00 +13°C° 0 mm 2 mps 735 mmHg 90%
    22:00 +13°C° 0 mm 1 mps 735 mmHg 92%
    23:00 +12°C° 0 mm 1 mps 735 mmHg 93%

    Mañana, 16 Julio, Martes

    Tiempo Temperatura Precipitaciones Viento Presión Humedad
    00:00 +12°C° 0 mm 1 mps 735 mmHg 94%
    01:00 +11°C° 0 mm 1 mps 736 mmHg 94%
    02:00 +11°C° 0 mm 1 mps 736 mmHg 95%
    03:00 +11°C° 0 mm 1 mps 735 mmHg 96%
    04:00 +11°C° 0 mm 1 mps 735 mmHg 96%
    05:00 +10°C° 0 mm 2 mps 735 mmHg 97%
    06:00 +13°C° 0 mm 2 mps 735 mmHg 93%
    07:00 +14°C° 0 mm 2 mps 735 mmHg 90%
    08:00 +16°C° 0 mm 2 mps 735 mmHg 86%
    09:00 +18°C° 0.1 mm 1 mps 735 mmHg 83%
    10:00 +19°C° 0.1 mm 1 mps 735 mmHg 79%
    11:00 +20°C° 0.1 mm 1 mps 735 mmHg 76%
    12:00 +20°C° 0.4 mm 1 mps 734 mmHg 75%
    13:00 +21°C° 0.4 mm 1 mps 734 mmHg 74%
    14:00 +21°C° 0.4 mm 1 mps 734 mmHg 74%
    15:00 +21°C° 0.6 mm 1 mps 734 mmHg 76%
    16:00 +21°C° 0.6 mm 1 mps 733 mmHg 78%
    17:00 +20°C° 0.6 mm 1 mps 733 mmHg 80%
    18:00 +19°C° 0.3 mm 1 mps 733 mmHg 84%
    19:00 +18°C° 0.3 mm 1 mps 733 mmHg 88%
    20:00 +16°C° 0.3 mm 2 mps 733 mmHg 93%
    21:00 +15°C° 0.1 mm 2 mps 733 mmHg 93%
    22:00 +14°C° 0.1 mm 2 mps 732 mmHg 94%
    23:00 +13°C° 0.1 mm 2 mps 732 mmHg 95%

    Pasado mañana, 17 Julio, Miércoles

    Tiempo Temperatura Precipitaciones Viento Presión Humedad
    00:00 +13°C° 0.1 mm 1 mps 732 mmHg 95%
    01:00 +13°C° 0.1 mm 1 mps 732 mmHg 95%
    02:00 +13°C° 0.1 mm 1 mps 732 mmHg 95%
    03:00 +13°C° 0.4 mm 1 mps 732 mmHg 95%
    04:00 +13°C° 0.4 mm 1 mps 732 mmHg 96%
    05:00 +13°C° 0.4 mm 1 mps 731 mmHg 96%
    06:00 +14°C° 0.3 mm 1 mps 731 mmHg 95%
    07:00 +14°C° 0.3 mm 1 mps 731 mmHg 94%
    08:00 +15°C° 0.3 mm 1 mps 731 mmHg 94%
    09:00 +15°C° 0.3 mm 1 mps 731 mmHg 92%
    10:00 +16°C° 0.3 mm 1 mps 731 mmHg 90%
    11:00 +16°C° 0.3 mm 2 mps 731 mmHg 88%
    12:00 +17°C° 0.5 mm 2 mps 731 mmHg 86%
    13:00 +17°C° 0.5 mm 2 mps 731 mmHg 84%
    14:00 +18°C° 0.5 mm 2 mps 731 mmHg 82%
    15:00 +18°C° 0.5 mm 2 mps 730 mmHg 80%
    16:00 +19°C° 0.5 mm 1 mps 730 mmHg 77%
    17:00 +18°C° 0.5 mm 0 mps 730 mmHg 74%
    18:00 +18°C° 0.3 mm 1 mps 730 mmHg 85%
    19:00 +16°C° 0.3 mm 1 mps 730 mmHg 88%
    20:00 +15°C° 0.3 mm 1 mps 730 mmHg 91%
    21:00 +14°C° 0 mm 1 mps 730 mmHg 92%
    22:00 +13°C° 0 mm 1 mps 729 mmHg 93%
    23:00 +13°C° 0 mm 1 mps 729 mmHg 94%

    18 Julio, Jueves

    Tiempo Temperatura Precipitaciones Viento Presión Humedad
    00:00 +12°C° 0 mm 1 mps 729 mmHg 94%
    01:00 +12°C° 0 mm 1 mps 729 mmHg 95%
    02:00 +12°C° 0 mm 2 mps 729 mmHg 96%
    03:00 +12°C° 0 mm 2 mps 729 mmHg 96%
    04:00 +12°C° 0 mm 2 mps 729 mmHg 97%
    05:00 +12°C° 0 mm 2 mps 729 mmHg 98%
    06:00 +13°C° 0.1 mm 2 mps 729 mmHg 95%
    07:00 +14°C° 0.1 mm 2 mps 729 mmHg 92%
    08:00 +16°C° 0.1 mm 2 mps 729 mmHg 89%
    09:00 +17°C° 0.9 mm 3 mps 729 mmHg 88%
    10:00 +17°C° 0.9 mm 3 mps 729 mmHg 86%
    11:00 +18°C° 0.9 mm 3 mps 729 mmHg 84%
    12:00 +18°C° 1.1 mm 4 mps 729 mmHg 84%
    13:00 +18°C° 1.1 mm 4 mps 729 mmHg 85%
    14:00 +18°C° 1.1 mm 4 mps 729 mmHg 85%
    15:00 +17°C° 0.1 mm 4 mps 729 mmHg 85%
    16:00 +17°C° 0.1 mm 4 mps 729 mmHg 85%
    17:00 +16°C° 0.1 mm 3 mps 730 mmHg 84%
    18:00 +14°C° 0.1 mm 3 mps 730 mmHg 88%
    19:00 +14°C° 0.1 mm 2 mps 730 mmHg 92%
    20:00 +13°C° 0.1 mm 2 mps 730 mmHg 96%
    21:00 +13°C° 0 mm 2 mps 730 mmHg 97%
    22:00 +13°C° 0 mm 1 mps 730 mmHg 97%
    23:00 +13°C° 0 mm 1 mps 730 mmHg 98%

    19 Julio, Viernes

    Tiempo Temperatura Precipitaciones Viento Presión Humedad
    00:00 +12°C° 0 mm 1 mps 730 mmHg 98%
    01:00 +12°C° 0 mm 1 mps 730 mmHg 98%
    02:00 +12°C° 0 mm 1 mps 730 mmHg 98%
    03:00 +12°C° 0 mm 1 mps 730 mmHg 98%
    04:00 +13°C° 0 mm 1 mps 731 mmHg 97%
    05:00 +13°C° 0 mm 1 mps 731 mmHg 97%
    06:00 +14°C° 0.1 mm 2 mps 731 mmHg 95%
    07:00 +15°C° 0.1 mm 2 mps 731 mmHg 93%
    08:00 +16°C° 0.1 mm 3 mps 732 mmHg 91%
    09:00 +16°C° 1.1 mm 3 mps 732 mmHg 92%
    10:00 +16°C° 1.1 mm 3 mps 732 mmHg 92%
    11:00 +15°C° 1.1 mm 4 mps 732 mmHg 93%
    12:00 +15°C° 0.6 mm 4 mps 733 mmHg 94%
    13:00 +14°C° 0.6 mm 4 mps 733 mmHg 95%
    14:00 +13°C° 0.6 mm 4 mps 733 mmHg 96%
    15:00 +13°C° 0.1 mm 4 mps 733 mmHg 96%
    16:00 +13°C° 0.1 mm 4 mps 734 mmHg 97%
    17:00 +13°C° 0.1 mm 4 mps 734 mmHg 97%
    18:00 +13°C° 0 mm 4 mps 734 mmHg 97%
    19:00 +14°C° 0 mm 4 mps 734 mmHg 96%
    20:00 +14°C° 0 mm 4 mps 735 mmHg 96%
    21:00 +14°C° 0 mm 4 mps 735 mmHg 96%
    22:00 +14°C° 0 mm 4 mps 735 mmHg 96%
    23:00 +14°C° 0 mm 4 mps 736 mmHg 96%

    20 Julio, Sábado

    Tiempo Temperatura Precipitaciones Viento Presión Humedad
    00:00 +14°C° 0 mm 4 mps 736 mmHg 97%
    01:00 +14°C° 0 mm 4 mps 736 mmHg 97%
    02:00 +13°C° 0 mm 4 mps 737 mmHg 97%
    03:00 +13°C° 0 mm 4 mps 737 mmHg 97%
    04:00 +13°C° 0 mm 3 mps 737 mmHg 97%
    05:00 +14°C° 0 mm 3 mps 738 mmHg 97%
    06:00 +14°C° 0 mm 3 mps 738 mmHg 95%
    07:00 +16°C° 0 mm 3 mps 738 mmHg 93%
    08:00 +16°C° 0 mm 3 mps 739 mmHg 92%
    09:00 +17°C° 0 mm 4 mps 739 mmHg 88%
    10:00 +18°C° 0 mm 4 mps 739 mmHg 84%
    11:00 +19°C° 0 mm 4 mps 740 mmHg 80%
    12:00 +19°C° 0.2 mm 4 mps 740 mmHg 79%
    13:00 +20°C° 0.2 mm 3 mps 740 mmHg 79%
    14:00 +20°C° 0.2 mm 3 mps 740 mmHg 78%
    15:00 +20°C° 0.7 mm 3 mps 740 mmHg 80%
    16:00 +20°C° 0.7 mm 3 mps 740 mmHg 81%
    17:00 +20°C° 0.7 mm 4 mps 740 mmHg 83%
    18:00 +19°C° 0.3 mm 3 mps 740 mmHg 87%
    19:00 +18°C° 0.3 mm 3 mps 741 mmHg 90%
    20:00 +17°C° 0.3 mm 2 mps 741 mmHg 94%
    21:00 +16°C° 0 mm 2 mps 741 mmHg 94%
    22:00 +15°C° 0 mm 2 mps 741 mmHg 95%
    23:00 +15°C° 0 mm 2 mps 741 mmHg 95%
    Mostrar más